User: anonymous   Login
Location: Gipe Farm
(40.9466°N, 95.5370°W)
Time: 22:29:32
(UTC-06:00)
Language:

Cosmos 1842 - Orbit

View from above orbital plane
View from above orbital plane
View from above satellite
View from above satellite

Ground track
Ground track

The orbit data is extracted from the following two-line orbital elements,

1 17911U 87038A   17055.11927051  .00000464  00000-0  25890-4 0  9991
2 17911  82.5218 304.1232 0009892 278.9886  81.0225 15.11109194624730
Epoch (UTC): 24 February 2017 02:51:44
Eccentricity: 0.0009892
inclination: 82.5218°
perigee height: 526 km
apogee height: 539 km
right ascension of ascending node: 304.1232°
argument of perigee: 278.9886°
revolutions per day: 15.11109194
mean anomaly at epoch: 81.0225°
orbit number at epoch: 62473

The dashed part of the orbit path shows where the satellite is in the earth's shadow,  

DLR